User: anonymous   Login
Location: Gombori
(14.9797°N, 2.9419°W)
Time: 08:43:18
(UTC+00:00)
Language:

Cosmos 2150 Rocket - Orbit

View from above orbital plane
View from above orbital plane
View from above satellite
View from above satellite

Ground track
Ground track

The orbit data is extracted from the following two-line orbital elements,

1 21419U 91041B   22275.64929404  .00000233  00000-0  91677-4 0  9990
2 21419  74.0424   2.6233 0040758 179.5250 180.5949 14.34102697637277
Epoch (UTC): 02 October 2022 15:34:59
Eccentricity: 0.0040758
inclination: 74.0424°
perigee height: 749 km
apogee height: 807 km
right ascension of ascending node: 2.6233°
argument of perigee: 179.5250°
revolutions per day: 14.34102697
mean anomaly at epoch: 180.5949°
orbit number at epoch: 63727

The dashed part of the orbit path shows where the satellite is in the earth's shadow,  

DLR